Probability
0 1 1 1 0 0 0 0 1 2 1 1 3 3 3 2 1 0 0 0 0 0 0 0 0 0 0 0 0 0 0 0 0 0 0 0 0 0 0 0 0 0 0
1 1 2 1 1 0 0 0 1 1 1 2 3 3 3 1 0 0 0 0 0 0 0 0 0 0 0 0 0 0 0 0 0 0 0 0 0 0 0 0 0 0 0
1 2 3 2 1 0 0 0 1 0 1 2 3 3 2 1 0 0 0 0 0 0 0 0 0 0 0 0 0 0 0 0 0 0 0 0 0 0 0 0 0 0 0
0 1 3 3 1 0 0 0 1 1 0 1 2 3 2 1 0 0 0 0 0 0 0 0 0 0 0 0 0 0 0 0 0 0 0 0 0 0 0 0 0 0 0
0 1 2 3 2 1 0 0 0 1 0 0 1 2 2 1 0 0 0 0 0 0 0 0 0 0 0 0 0 0 0 0 0 0 0 0 0 0 0 0 0 0 0
0 0 1 2 3 2 1 0 0 0 0 0 0 1 1 0 0 0 0 0 0 0 0 0 0 0 0 0 0 0 0 0 0 0 0 0 0 0 0 0 0 0 0
1 1 1 2 2 2 1 0 0 0 0 0 0 1 1 0 0 0 0 0 0 0 0 0 0 0 0 0 0 0 0 0 0 0 0 0 0 0 0 0 0 0 0
2 2 2 1 1 1 0 0 0 0 0 0 1 2 2 1 0 0 0 0 0 0 0 0 0 0 0 0 0 0 0 0 0 0 0 0 0 0 0 0 0 0 0
1 1 1 1 0 0 0 0 0 0 0 0 1 2 3 1 0 0 0 0 0 0 0 0 0 0 0 0 0 0 0 0 0 0 0 0 0 0 0 0 0 0 0
0 0 0 0 0 0 0 0 0 0 0 0 1 2 3 2 1 0 0 0 0 0 0 0 0 0 0 0 0 0 0 0 0 0 0 0 0 0 0 0 0 0 0
0 0 0 0 0 0 0 0 0 0 0 0 0 1 2 2 1 0 0 0 0 0 0 0 0 0 0 0 0 0 0 0 0 0 0 0 0 0 0 0 0 0 0
0 0 0 0 0 0 0 0 0 0 0 0 0 0 1 1 0 0 0 0 0 0 0 0 0 0 0 0 0 0 0 0 0 0 0 0 0 0 0 0 0 0 0
0 0 0 0 0 0 0 0 0 0 0 0 0 0 0 0 0 0 0 0 0 0 0 0 0 0 0 0 0 0 0 0 0 0 0 0 0 0 0 0 0 0 0
0 0 0 0 0 0 0 0 0 0 0 0 0 0 0 0 0 0 0 0 0 0 0 0 0 0 0 0 0 0 0 0 0 0 0 0 0 0 0 0 0 0 0
0 0 0 0 0 0 0 0 0 0 0 0 0 0 0 0 0 0 0 0 0 0 0 0 0 0 0 0 0 0 0 0 0 0 0 0 0 0 0 0 0 0 0
0 0 0 0 0 0 0 0 0 0 0 0 0 0 0 0 0 0 0 0 0 0 0 0 0 0 0 0 0 0 0 0 0 0 0 0 0 0 0 0 0 0 0
0 0 0 0 0 0 0 0 0 0 0 0 0 0 0 0 0 0 0 0 0 0 0 0 0 0 0 0 0 0 0 0 0 0 0 0 0 0 0 0 0 0 0
0 0 0 0 0 0 0 0 0 0 0 0 0 0 0 0 0 0 0 0 0 0 0 0 0 0 0 0 0 0 0 0 0 0 0 0 0 0 0 0 0 0 0
0 0 0 0 0 0 0 0 0 0 0 0 0 0 0 0 0 0 0 0 0 0 0 0 0 0 0 0 0 0 0 0 0 0 0 0 0 0 0 0 0 0 0
0 0 0 0 0 0 0 0 0 0 0 0 0 0 0 0 0 0 0 0 0 0 0 0 0 0 0 0 0 0 0 0 0 0 0 0 0 0 0 0 0 0 0
0 0 0 0 0 0 0 0 0 0 0 0 0 0 0 0 0 0 0 0 0 0 0 0 0 0 0 0 0 0 0 0 0 0 0 0 0 0 0 0 0 0 0
0 0 0 0 0 0 0 0 0 0 0 0 0 0 0 0 0 0 0 0 0 0 0 0 0 0 0 0 0 0 0 0 0 0 0 0 0 0 0 0 0 0 0
0 0 0 0 0 0 0 0 0 0 0 0 0 0 0 0 0 0 0 0 0 0 0 0 0 0 0 0 0 0 0 0 0 0 0 0 0 0 0 0 0 0 0
0 0 0 0 0 0 0 0 0 0 0 0 0 0 0 0 0 0 0 0 0 0 0 0 0 0 0 0 0 0 0 0 0 0 0 0 0 0 0 0 0 0 0
0 0 0 0 0 0 0 0 0 0 0 0 0 0 0 0 0 0 0 0 0 0 0 0 0 0 0 0 0 0 0 0 0 0 0 0 0 0 0 0 0 0 0
0 0 0 0 0 0 0 0 0 0 0 0 0 0 0 0 0 0 0 0 0 0 0 0 0 0 0 0 0 0 0 0 0 0 0 0 0 0 0 0 0 0 0
Wind_Speed
4 5 6 7 7 8 10 11 12 12 14 15 15 14 13 13 13 12 11 12 12 10 9 9 8 7 5 4 4 3 3 3 3 1 1 2 3 2 2 1 1 1 1
4 5 5 6 6 7 9 11 11 12 13 15 15 14 14 13 13 14 14 13 13 12 11 10 9 7 7 5 4 4 3 3 4 3 1 1 2 2 1 1 0 0 0
4 4 4 5 6 7 7 9 11 12 12 14 15 15 14 14 14 13 13 13 12 11 11 11 10 9 8 6 6 5 4 3 3 3 2 1 1 1 1 1 1 1 1
4 3 4 4 6 7 7 8 10 11 12 13 14 14 13 13 13 12 12 12 11 10 10 10 10 10 10 9 7 6 5 4 4 3 2 2 1 1 1 0 1 1 2
4 3 3 4 4 5 6 7 8 10 11 11 12 13 13 12 11 12 11 12 12 10 9 9 9 10 10 9 7 7 7 5 4 3 3 2 2 1 1 1 1 1 1
5 3 3 3 3 4 5 6 7 8 10 10 11 12 12 10 14 16 12 11 11 12 11 9 9 11 11 11 11 10 9 8 6 5 3 3 3 2 2 1 1 1 1
5 4 3 3 3 4 5 6 7 8 9 10 11 12 12 12 16 17 16 11 11 11 11 10 7 8 11 9 10 10 7 7 8 6 5 4 4 3 3 2 1 1 1
5 3 3 2 3 3 4 6 7 7 8 8 10 11 11 12 17 17 16 11 9 10 10 11 10 10 10 11 9 8 6 4 5 4 5 4 3 3 3 3 2 1 1
5 4 3 2 3 3 4 5 6 6 7 8 9 11 11 12 17 18 16 9 8 9 9 9 10 10 15 16 12 10 8 5 7 10 9 8 8 7 6 4 3 2 1
6 4 3 3 3 4 4 4 4 6 6 7 8 9 11 11 16 19 17 9 9 8 8 9 12 13 17 17 12 11 10 7 7 7 7 7 6 6 7 4 3 2 1
6 5 3 3 4 4 3 4 4 5 6 7 8 8 9 11 15 19 18 10 10 9 8 7 8 16 18 17 13 9 11 10 8 7 6 5 4 3 3 3 2 2 2
5 4 3 3 4 3 3 3 4 6 7 7 8 8 7 9 12 16 18 14 12 10 9 8 9 17 17 16 11 13 17 13 7 6 5 4 3 3 2 3 3 3 2
5 4 4 4 4 4 3 4 4 5 6 6 7 7 7 7 9 15 17 16 15 9 8 13 16 18 16 12 14 17 14 8 7 6 5 4 3 3 3 3 3 3 3
5 5 4 3 4 3 2 3 4 5 6 6 7 8 7 7 8 9 10 11 13 11 10 15 18 16 12 12 12 9 6 6 6 6 5 4 4 3 3 2 2 2 2
5 4 4 3 3 2 2 2 4 4 6 7 7 8 10 9 10 14 12 10 10 10 11 8 8 8 7 6 6 6 5 6 5 5 6 5 4 3 2 2 2 1 1
5 4 3 2 2 2 1 0 0 3 5 7 9 9 8 11 17 18 17 18 19 20 13 9 9 8 8 8 8 6 5 5 5 5 5 5 5 4 3 2 1 1 1
5 5 3 2 3 2 2 2 2 2 4 7 10 12 13 17 19 20 20 20 21 19 10 9 9 9 8 8 8 7 5 5 5 6 6 5 4 4 3 2 2 1 1
5 5 4 3 3 3 3 3 4 4 4 4 7 13 16 19 20 21 22 17 12 9 7 9 9 9 9 8 8 7 7 6 6 5 5 5 4 4 3 2 2 1 1
5 4 3 3 3 3 3 3 4 5 5 5 5 8 14 17 18 19 18 9 10 9 8 8 8 8 8 8 8 7 7 7 7 6 5 5 4 4 3 3 2 2 1
4 6 5 3 3 3 4 4 4 5 6 6 7 7 8 9 9 10 8 7 8 8 8 8 8 8 8 8 8 8 8 7 7 6 5 5 4 4 4 4 2 2 1
4 4 5 4 4 4 4 5 5 5 6 6 5 8 12 9 8 9 8 7 8 9 9 9 8 9 8 8 8 8 9 7 7 6 6 5 5 4 3 3 3 2 1
3 3 3 3 3 4 4 5 5 6 7 7 6 7 12 8 7 8 7 6 6 7 8 9 8 8 8 9 9 9 9 8 7 7 6 5 5 4 4 3 3 2 1
3 3 2 3 3 5 4 4 5 6 6 7 7 7 7 7 7 8 8 7 7 8 8 8 8 8 7 6 7 9 10 9 8 9 8 6 5 5 4 4 3 2 1
3 3 3 3 4 4 5 5 5 6 7 7 7 6 7 7 8 8 8 8 8 8 8 8 8 11 12 9 6 6 7 8 8 8 9 8 7 5 4 4 3 3 2
2 2 3 4 4 5 5 5 5 6 6 7 7 7 7 8 9 9 8 8 10 9 10 9 8 10 12 12 10 9 13 15 12 9 7 7 7 6 5 4 3 3 2
2 2 3 4 4 5 5 6 6 6 6 7 7 7 8 9 9 9 9 9 9 9 9 8 10 11 12 11 13 16 17 16 16 14 8 7 7 6 5 4 4 3 2
Wind_Direction
269 252 248 217 200 199 192 185 183 178 176 175 176 177 179 180 178 178 178 175 177 176 175 178 180 170 165 165 157 158 161 149 170 173 108 113 117 125 116 129 150 178 254
272 260 252 228 204 200 191 186 184 182 180 177 175 178 181 182 181 181 180 178 178 178 177 176 178 170 167 167 164 170 170 162 156 170 146 118 125 138 134 136 340 235 255
283 267 256 234 213 202 191 190 189 183 180 179 178 180 182 183 182 182 180 179 178 176 176 177 175 170 173 169 167 171 170 157 145 149 157 128 111 114 101 44 336 321 300
292 269 257 243 221 208 195 192 193 185 182 183 181 181 182 181 181 179 177 176 174 174 175 176 174 175 176 171 172 172 161 153 142 139 143 135 123 113 107 90 318 309 310
296 276 267 252 231 209 197 191 190 187 180 181 181 179 179 179 181 175 174 173 171 169 168 168 167 166 170 170 168 167 160 155 147 147 151 141 145 142 180 176 274 315 323
303 288 287 266 232 208 199 189 186 185 179 177 180 178 177 179 175 173 170 172 169 167 166 163 161 161 162 159 154 153 157 162 166 161 162 167 180 174 154 144 130 32 291
304 303 292 290 248 212 199 187 186 183 177 179 179 177 178 174 168 170 169 166 167 167 165 162 158 159 152 148 140 132 132 141 153 157 157 173 168 175 153 146 155 180 238
299 298 299 298 271 226 200 190 189 182 179 183 179 177 174 171 166 166 163 160 162 164 165 163 159 156 157 148 140 130 120 115 130 130 138 140 133 134 144 152 153 105 24
299 295 297 295 276 240 210 198 188 180 180 182 178 174 172 169 166 164 161 160 157 159 159 158 158 159 156 146 142 139 127 110 96 105 104 104 103 104 108 105 98 80 26
305 297 296 293 278 253 217 204 192 180 181 178 173 173 170 168 168 165 163 161 156 153 149 153 158 158 157 153 153 151 149 147 133 114 99 91 87 90 90 103 129 117 98
299 295 291 291 284 260 228 204 190 179 176 177 168 167 167 168 168 168 166 164 161 155 154 155 159 157 156 156 153 155 153 143 136 128 118 107 94 83 72 68 73 115 136
296 294 288 287 287 266 217 200 190 179 173 174 165 161 161 164 168 170 168 162 156 155 158 155 150 150 150 151 149 144 139 133 130 128 125 125 121 108 87 72 69 67 90
297 298 287 283 277 257 221 197 189 181 172 173 166 161 156 155 157 159 160 153 145 143 146 145 143 144 142 141 141 140 138 136 136 136 140 140 130 122 110 91 72 65 45
291 292 286 280 278 263 237 206 193 185 177 175 170 163 155 155 155 156 154 147 136 129 130 133 132 131 127 128 133 135 133 140 140 141 137 129 120 118 116 106 92 66 45
288 284 283 275 274 281 273 227 209 207 191 180 176 166 164 168 165 156 155 153 149 143 134 129 132 135 134 131 129 130 129 131 128 128 132 132 129 122 116 101 92 69 65
283 279 270 258 262 250 241 335 120 192 182 180 172 162 161 156 150 150 148 147 144 143 138 145 148 149 149 148 145 140 138 139 137 135 135 136 137 137 130 111 82 75 67
276 272 262 247 241 232 205 175 148 97 134 150 149 149 149 150 150 150 147 145 146 145 141 149 153 155 152 149 149 149 147 143 139 139 138 138 137 135 133 128 106 76 54
275 266 251 238 227 218 206 187 169 156 144 133 134 142 145 149 150 149 145 139 147 148 149 153 154 153 152 152 152 147 142 140 140 140 138 139 139 139 138 135 130 122 75
271 257 240 224 216 212 201 180 166 155 143 137 129 134 142 144 144 147 147 148 155 156 152 149 148 149 151 150 148 145 145 146 144 141 141 142 143 139 136 135 134 125 78
270 259 245 217 206 205 192 171 158 149 143 144 149 148 144 140 143 149 150 148 151 151 149 146 145 149 149 148 146 144 142 142 143 142 143 141 140 139 141 141 136 132 102
265 258 243 216 203 194 183 167 156 151 147 145 148 155 156 151 151 153 154 154 153 150 147 145 146 148 147 145 145 144 143 145 146 145 142 142 140 137 135 133 130 124 107
255 247 226 197 183 175 169 158 150 148 147 143 139 146 151 144 144 146 147 147 144 143 143 144 145 147 150 152 151 148 147 147 147 145 141 138 136 135 134 130 126 122 115
253 238 211 182 166 159 153 148 149 149 146 144 144 146 147 142 141 141 142 139 135 135 136 138 139 138 138 141 146 150 152 155 154 149 144 141 139 138 137 136 135 131 120
252 223 177 161 156 152 147 145 146 146 145 143 143 144 143 139 135 134 134 132 131 131 133 134 137 140 138 136 135 136 136 138 140 142 141 140 138 136 134 134 132 134 132
243 196 166 157 153 148 144 141 140 142 143 142 141 139 137 135 132 131 130 128 128 128 129 129 132 135 137 136 136 136 138 136 135 134 132 131 131 133 135 134 133 129 115
228 187 162 151 149 144 141 139 141 141 140 139 139 138 138 136 134 133 132 131 130 128 127 126 129 132 133 133 134 135 136 136 135 132 128 127 129 132 132 128 126 121 114